Wind_Speed
76 77 77 77 77 77 77 77 77 77 78 78 78 77 77 77 76 76 76 76 77 77 77 77 77 76 75 74 73 73 72 72 72 72 72 72 71 71 71 70 70 70 70 69 69 68 67 66 64 63 62 61 61 61 61 61 61 61 60 59 58 57 56 55 54 52 51 50 49 48 48 48 47 47 47 48 48 47 47 46 46 46 46 45 44 44
80 80 80 81 80 80 80 80 80 80 80 80 80 80 80 80 80 79 79 79 79 79 79 79 79 79 78 78 76 75 74 73 73 72 72 72 72 71 71 71 70 70 70 70 69 68 67 66 65 64 63 62 62 62 62 62 63 62 62 61 60 59 58 57 56 54 53 51 50 49 49 49 48 48 49 49 49 48 48 47 46 46 45 45 45 44
83 84 84 84 84 84 85 85 85 84 84 84 84 84 83 83 83 83 82 82 82 81 81 81 81 81 81 80 80 79 77 76 75 74 73 73 73 72 72 71 71 71 70 70 69 69 68 67 65 64 63 63 63 63 63 64 64 64 63 63 62 61 60 59 57 56 54 53 52 51 51 50 50 49 49 50 50 49 48 47 46 45 45 44 44 44
86 86 87 88 88 88 88 88 89 89 89 88 88 88 87 87 87 86 86 85 85 85 84 84 83 83 83 83 82 81 81 80 78 77 76 75 74 73 73 72 72 71 71 71 70 69 68 67 66 65 64 64 64 64 64 65 65 65 65 64 63 62 61 60 58 57 56 55 54 53 53 52 51 50 50 51 51 50 48 47 46 45 44 43 43 43
88 89 89 90 90 90 91 91 92 92 92 92 92 92 92 91 91 90 90 89 89 88 87 87 86 86 85 85 84 84 83 83 82 80 79 78 77 76 75 74 73 73 72 72 71 70 69 68 67 66 65 65 65 65 65 66 66 66 65 65 64 63 62 61 60 58 57 56 56 55 55 53 52 51 51 51 52 51 49 47 46 45 45 44 44 44
90 91 91 92 92 92 93 94 94 94 95 95 95 95 95 95 95 94 94 93 92 92 91 90 90 89 88 88 87 86 86 85 84 83 82 81 80 78 77 76 75 75 74 73 73 72 71 70 69 68 66 66 65 65 66 66 66 66 66 65 64 64 63 62 60 59 58 58 57 56 55 54 53 52 52 52 52 52 51 49 48 47 47 47 47 46
92 92 93 93 93 94 94 95 95 96 96 96 97 97 97 97 97 97 97 96 96 95 95 94 93 92 92 91 90 89 88 88 87 86 85 84 82 81 80 79 78 77 76 75 75 74 73 72 71 69 68 67 66 66 66 66 66 66 65 65 64 64 63 62 61 60 59 59 58 57 56 55 54 54 54 53 53 53 53 52 50 50 50 50 50 50
92 93 93 92 93 94 94 95 95 96 96 97 97 98 98 98 98 98 98 98 98 98 97 97 96 96 95 94 93 92 92 91 90 89 88 86 85 84 82 81 80 79 78 77 76 76 75 74 73 71 70 68 67 66 66 66 65 65 65 64 64 63 63 62 61 61 60 59 59 58 57 56 55 54 53 53 53 54 54 54 52 51 51 52 52 52
90 90 91 91 91 91 92 93 94 94 94 95 96 97 97 98 98 99 99 99 99 99 99 98 98 98 97 97 96 95 95 94 93 92 90 89 88 86 85 83 82 81 80 79 79 78 77 76 75 73 72 70 69 68 66 66 65 65 64 64 63 63 62 62 61 61 60 60 59 59 58 57 56 54 53 52 53 54 55 54 52 51 52 53 53 53
86 86 87 88 89 89 88 89 91 93 92 92 93 95 96 96 97 98 98 98 98 99 99 98 98 99 99 99 98 97 97 96 96 95 93 92 91 89 87 86 84 83 82 82 81 80 79 78 77 76 74 73 71 69 68 67 66 65 64 64 63 63 62 62 61 61 60 60 60 60 59 59 58 56 53 53 53 54 54 53 52 52 52 53 53 53
83 83 83 84 85 86 85 86 88 89 89 89 90 92 93 94 95 95 96 97 98 98 98 98 98 98 99 99 99 99 98 98 98 97 96 95 94 92 90 89 87 85 84 83 83 82 81 80 79 78 77 75 74 72 70 68 67 66 65 64 63 63 62 62 61 61 61 61 60 60 60 60 59 58 55 53 53 54 54 54 53 54 55 54 54 53
82 82 82 83 83 84 84 85 86 86 87 87 87 88 90 91 92 92 93 95 96 97 96 97 97 97 97 98 98 99 99 98 99 99 98 97 96 95 93 92 90 88 86 85 84 84 83 82 81 80 79 78 76 74 73 71 69 67 66 65 64 63 63 62 62 62 61 61 61 60 60 60 60 60 59 58 57 56 55 55 56 56 56 56 55 55
83 83 83 84 85 85 86 86 86 87 87 87 87 88 89 90 91 90 91 92 94 95 95 95 96 96 96 96 96 97 98 98 99 99 99 99 98 97 96 94 93 91 89 88 86 85 85 84 83 83 82 80 79 77 75 73 72 70 68 67 66 65 64 63 63 63 62 62 62 61 61 61 61 61 61 61 61 60 58 57 57 56 56 56 56 55
85 85 85 86 87 87 88 88 88 89 89 90 90 90 91 92 92 91 91 92 93 94 94 94 94 95 95 94 94 95 96 97 98 99 99 98 99 98 97 96 95 94 92 90 89 87 86 85 85 85 84 83 81 80 78 76 74 72 71 69 68 67 66 65 64 64 63 63 62 62 62 61 61 61 61 61 61 61 60 59 58 56 56 55 55 54
87 87 87 88 89 90 90 90 91 91 92 93 93 93 93 94 94 94 94 94 94 95 95 94 94 95 95 94 93 93 94 95 96 97 97 98 98 98 98 97 97 96 95 93 91 89 88 87 86 86 86 85 84 82 80 79 77 75 73 72 71 69 68 67 67 66 65 64 64 63 63 62 62 61 61 61 60 60 60 59 58 57 56 55 54 53
89 89 90 91 91 92 93 93 93 94 95 96 96 96 96 96 97 97 97 97 97 97 97 96 95 96 96 95 94 93 93 94 95 95 96 96 97 97 97 97 97 97 96 95 93 91 90 88 87 86 86 86 86 84 83 81 79 78 76 74 73 72 71 70 69 68 67 66 66 65 64 64 63 62 62 61 60 60 59 58 58 57 56 55 54 53
91 91 92 93 94 95 95 96 96 96 97 98 98 98 98 98 99 99 99 99 99 99 99 99 98 97 97 97 96 95 94 94 94 95 95 95 95 96 96 96 96 97 97 96 95 93 92 90 88 87 87 87 87 86 85 84 82 80 79 77 76 75 73 73 72 71 70 69 68 67 66 65 65 64 63 62 61 60 60 58 58 57 56 55 54 53
93 93 94 94 95 96 97 97 97 98 98 99 99 99 100 100 100 100 100 100 100 100 101 101 100 99 99 98 98 97 96 95 95 95 95 94 95 95 95 95 95 97 97 96 96 95 93 91 90 89 88 87 87 88 87 86 85 83 81 80 78 77 76 75 74 73 72 71 70 69 68 67 66 65 65 64 63 62 61 59 58 58 57 56 55 54
94 94 94 95 96 96 97 96 97 97 97 98 98 99 98 99 99 99 99 100 100 100 101 101 101 101 100 99 99 99 98 97 96 96 96 95 94 94 94 94 94 96 97 96 96 96 95 93 91 90 89 88 88 88 89 88 87 86 84 82 81 80 78 78 77 76 75 74 73 71 70 69 68 67 67 66 65 63 62 61 60 59 58 57 56 55
93 93 94 93 93 94 94 94 94 94 94 95 96 96 96 96 97 97 97 97 98 98 99 99 99 99 100 99 99 99 99 98 97 97 97 96 95 94 93 93 93 95 96 96 96 96 95 94 92 91 90 90 89 89 90 90 89 88 87 85 83 82 81 80 79 78 77 76 75 74 73 72 71 70 69 68 66 65 64 62 61 60 60 59 57 56
91 91 91 90 89 89 90 90 90 90 90 90 91 91 92 92 93 93 93 93 94 94 95 95 96 97 97 97 97 98 98 97 97 97 99 98 96 94 93 92 93 94 95 95 95 95 95 94 93 92 91 91 90 90 90 91 91 91 89 88 86 84 83 82 81 80 79 78 77 76 75 74 73 72 71 69 68 67 65 64 63 62 61 60 59 58
86 86 86 86 85 84 84 85 85 84 85 85 85 86 87 87 87 87 88 88 88 89 89 90 91 92 93 93 93 94 95 95 95 96 98 97 96 95 94 93 92 93 93 94 94 93 93 93 93 93 92 92 91 91 91 92 93 93 91 90 88 87 85 84 83 82 81 80 79 78 77 76 75 73 72 71 70 69 67 66 65 64 63 62 60 59
82 81 81 80 80 79 79 79 79 79 79 79 79 80 81 81 81 81 82 82 82 82 83 84 85 86 87 87 88 89 89 90 91 93 95 95 95 95 94 92 91 91 92 92 92 92 91 92 93 93 92 92 92 92 92 92 93 94 93 92 90 89 87 86 85 84 83 82 81 80 79 77 76 75 74 73 72 70 69 68 67 66 64 63 62 61
77 76 76 75 74 74 74 74 74 74 74 74 74 74 74 74 74 74 75 75 75 75 76 77 78 79 80 81 81 82 83 84 86 88 89 91 92 93 93 91 90 90 91 91 91 90 90 90 91 92 92 92 92 93 93 93 93 94 94 93 92 90 89 88 86 85 84 83 83 81 80 79 78 77 76 74 73 72 71 70 68 67 66 65 64 63
73 72 71 70 69 69 69 69 69 69 70 69 69 69 68 68 68 68 67 67 67 68 68 69 70 71 73 74 74 75 77 78 79 81 83 86 88 89 90 89 89 89 89 90 89 89 89 90 90 90 90 91 92 93 94 94 94 94 94 94 93 92 91 89 88 87 86 85 84 83 82 81 80 78 77 76 74 73 72 71 70 69 67 66 65 64
69 68 67 66 65 65 65 65 66 66 66 66 65 64 64 63 62 61 61 60 59 59 60 61 62 64 65 66 67 68 70 71 72 74 77 80 82 84 85 86 86 87 87 88 88 88 88 89 89 88 88 88 90 92 93 94 95 95 95 95 94 93 92 91 90 88 87 86 85 84 83 82 81 80 78 77 76 74 74 73 72 70 69 68 67 66
65 63 62 62 61 61 62 62 63 64 64 63 62 61 60 58 57 56 54 53 52 51 52 53 54 56 57 58 59 61 62 62 64 66 69 73 75 78 80 81 82 83 85 86 86 86 87 88 88 87 86 86 87 89 91 93 95 95 96 96 95 94 93 92 91 90 89 87 86 86 85 83 82 81 80 78 77 76 75 74 73 72 70 69 68 67
61 59 59 58 58 59 59 60 61 61 61 61 60 58 57 54 52 50 48 47 45 45 45 46 47 48 49 50 52 53 53 54 55 58 61 64 67 71 73 75 77 79 81 83 84 85 85 86 87 86 85 85 85 86 88 91 93 95 96 97 96 95 94 93 92 91 90 89 87 86 86 85 83 82 81 80 78 77 76 75 74 73 71 70 69 69
57 56 56 55 56 57 58 58 59 59 59 58 57 55 53 50 47 45 43 41 40 39 39 40 40 41 42 44 45 45 46 46 47 50 53 55 59 63 65 67 69 72 75 78 80 82 83 84 85 85 85 84 84 84 85 88 91 94 96 97 97 96 94 93 93 92 91 90 88 87 86 86 84 83 82 81 79 78 77 76 75 73 72 71 70 70
54 53 53 53 54 55 56 56 57 57 56 55 53 51 49 46 42 40 38 37 36 35 35 34 35 35 36 38 39 39 39 39 40 42 45 48 51 54 56 57 60 63 66 70 74 77 80 82 83 83 84 84 83 83 84 85 89 92 95 97 96 95 93 92 92 92 92 91 89 88 87 86 85 84 83 82 81 79 78 77 76 74 73 72 72 71
53 52 51 52 52 53 54 54 54 54 52 51 49 47 44 40 37 34 33 32 32 32 32 31 31 31 32 33 34 34 34 34 34 36 39 42 45 47 48 49 51 54 57 60 65 69 75 78 80 81 82 82 83 83 83 85 88 91 93 95 95 94 92 91 91 92 92 91 90 89 88 87 86 85 84 83 82 80 79 78 77 75 74 74 73 72
52 51 51 51 52 52 52 52 52 50 49 47 44 42 38 35 32 29 28 28 29 29 29 29 29 29 29 29 30 31 30 30 30 32 35 38 41 43 43 43 44 46 49 53 57 62 66 71 74 77 79 80 81 82 83 84 86 89 91 92 93 93 92 91 91 91 92 92 91 89 89 88 87 86 85 84 83 81 80 79 77 76 75 74 74 73
52 51 50 51 51 51 51 50 49 47 45 42 40 37 34 30 27 25 24 24 25 27 28 28 28 27 27 27 27 27 27 27 27 29 32 35 38 39 39 40 40 41 42 45 49 53 58 62 67 71 74 77 80 82 83 83 85 86 88 90 91 91 91 91 91 91 92 92 91 90 89 88 87 86 86 84 83 82 81 80 78 77 75 74 74 73
51 50 50 50 50 50 49 48 46 43 41 38 36 33 30 27 25 23 22 22 23 25 26 27 27 27 26 25 25 25 25 25 25 27 29 32 34 35 35 36 37 38 38 39 41 44 48 53 58 63 68 73 77 79 81 82 83 85 86 87 88 89 90 90 90 91 92 92 91 90 88 88 87 87 86 85 84 83 82 80 79 77 76 75 74 74
51 50 49 49 49 48 47 45 43 40 37 35 32 30 28 25 23 22 22 22 23 24 25 25 25 25 25 25 25 25 24 24 24 25 27 29 30 32 32 33 35 36 37 37 37 37 39 44 50 55 60 65 70 73 76 79 81 83 84 85 86 87 88 88 89 91 92 92 91 90 88 87 87 86 86 85 84 83 82 81 79 78 76 75 74 73
50 49 48 48 48 47 45 43 40 37 34 31 29 27 26 24 23 23 22 22 23 23 23 23 24 24 24 24 25 24 24 23 23 25 26 27 28 29 30 31 32 34 35 36 36 35 36 38 43 48 52 57 61 65 70 73 75 78 80 82 83 84 85 86 87 89 91 91 91 89 88 87 86 86 86 85 84 84 83 81 80 78 77 76 75 74
49 48 47 47 46 45 43 40 37 34 32 29 27 25 24 24 23 23 22 22 21 21 22 22 22 22 23 23 23 23 23 22 23 24 25 26 26 27 28 28 29 31 33 35 36 36 36 36 38 41 45 50 54 58 62 66 68 71 74 77 79 81 82 83 85 86 88 90 90 90 88 87 86 85 85 85 84 84 83 82 81 79 78 77 76 76
48 47 46 45 44 43 41 38 36 33 30 27 25 24 23 22 22 21 21 20 20 20 20 21 21 21 22 22 22 22 22 22 22 23 23 24 25 25 26 26 26 28 31 34 36 37 37 37 37 38 41 45 49 53 56 59 61 64 68 72 75 77 78 80 82 84 86 88 89 89 88 87 86 85 85 84 84 83 82 82 81 80 79 80 78 77
48 45 44 43 42 41 39 37 34 31 28 26 24 22 21 20 20 19 19 19 19 20 20 20 20 20 21 21 22 22 21 21 22 22 22 23 23 23 24 24 24 26 28 32 36 38 38 38 37 37 38 40 44 48 51 54 57 60 63 66 68 71 74 77 79 81 83 85 87 88 88 87 86 85 84 84 83 82 82 81 81 80 79 80 79 78
47 44 42 41 40 39 37 35 32 30 27 25 23 21 20 19 19 19 19 19 20 20 20 20 20 20 20 20 21 21 21 21 21 21 21 22 22 22 22 23 23 24 26 30 35 38 40 39 37 36 36 37 40 43 46 50 53 56 58 59 61 65 69 72 75 77 80 83 85 87 87 87 86 85 84 83 83 82 81 81 80 80 79 79 79 79
47 44 41 40 39 37 36 33 31 28 26 24 22 20 20 19 19 19 19 20 20 20 20 20 20 19 19 19 20 20 20 20 20 21 21 21 21 21 22 22 23 24 25 28 32 37 40 40 38 36 36 37 38 40 43 46 49 51 53 55 58 62 65 68 70 74 77 80 83 85 86 86 85 85 84 83 83 82 81 80 80 79 79 79 79 79
47 43 40 38 37 36 34 32 30 28 25 23 22 20 20 19 19 19 19 20 20 20 21 20 20 19 19 19 19 19 19 20 20 20 20 20 20 20 21 21 22 23 25 27 30 34 38 40 40 39 37 37 38 39 41 43 45 48 50 52 55 58 60 63 66 70 74 77 81 83 84 84 84 84 84 83 83 82 81 80 79 79 79 79 78 78
47 43 40 37 35 34 33 31 29 27 25 24 22 21 20 19 19 19 19 20 20 20 20 20 20 19 19 18 18 18 19 19 19 19 19 20 20 20 20 20 21 22 24 26 28 32 36 40 42 42 41 39 38 39 39 41 42 44 46 49 51 52 54 59 64 68 71 75 78 80 82 82 83 83 84 83 82 81 80 79 78 78 78 78 78 77
48 44 40 37 34 33 31 30 28 27 25 24 22 21 21 20 20 20 20 20 20 20 19 19 19 18 17 17 17 17 18 18 19 19 19 19 19 19 19 19 20 21 22 24 26 29 32 37 42 45 45 43 41 40 39 40 41 42 44 46 47 49 52 57 60 64 67 71 75 77 79 80 81 82 82 82 82 81 80 78 78 77 77 77 77 77
48 45 41 37 34 32 30 29 28 26 25 24 23 22 22 22 22 22 22 21 20 19 18 18 17 17 16 16 16 16 17 17 18 19 19 20 20 20 19 19 19 20 20 21 23 25 28 33 39 44 47 47 46 43 41 40 41 42 43 44 45 47 50 53 56 59 64 68 71 74 76 78 78 79 80 80 81 80 79 78 77 76 76 76 76 76
49 45 41 38 34 32 30 29 27 26 25 24 24 23 23 23 23 22 22 21 20 19 17 17 16 16 15 15 15 16 16 16 17 18 19 20 20 20 20 20 19 19 19 19 20 22 24 28 33 39 45 49 50 49 47 45 44 44 45 45 45 46 47 48 51 56 61 64 67 70 73 75 76 76 77 79 80 80 79 78 77 76 76 75 75 75
49 46 42 38 35 32 30 29 27 26 25 25 24 24 23 23 23 22 21 20 19 18 17 16 16 15 15 15 15 15 15 15 16 17 18 19 20 20 20 20 20 19 19 19 18 19 21 23 27 32 38 44 48 50 51 50 49 49 48 47 46 45 44 45 48 52 57 61 64 67 69 71 72 74 76 77 78 79 79 78 77 77 76 75 74 73
50 47 43 39 36 33 30 29 27 26 25 24 24 24 23 22 21 20 19 18 17 16 16 15 15 15 15 15 15 15 15 15 16 16 17 18 19 20 20 20 20 20 19 19 18 18 18 20 22 26 31 36 41 46 49 50 51 51 51 49 47 45 44 43 44 48 53 57 61 64 66 68 69 72 74 75 76 77 77 77 77 76 75 75 74 73
50 48 44 41 37 33 30 29 27 26 25 24 23 23 22 21 20 18 17 16 15 15 15 14 15 15 15 16 16 16 16 16 17 17 17 18 18 19 19 20 20 20 19 19 18 18 17 18 19 22 25 29 34 38 42 45 48 49 49 48 47 45 43 41 41 43 48 53 58 61 63 65 68 70 71 72 73 75 76 77 76 76 75 75 73 72
50 48 45 42 38 34 31 29 27 26 24 23 23 22 21 20 18 17 16 15 14 14 14 14 15 15 16 17 17 17 18 18 18 18 18 18 18 18 18 19 19 19 19 19 18 18 17 17 18 19 21 24 28 32 36 39 42 44 45 45 45 44 43 42 41 42 45 49 54 57 60 62 64 66 67 69 71 73 75 75 75 75 75 74 72 70
49 48 46 43 39 35 32 29 27 25 24 23 22 21 20 19 18 16 15 15 14 14 14 15 16 17 17 18 18 18 18 19 18 19 19 18 18 18 18 18 18 18 18 18 18 18 17 17 17 17 19 21 24 27 31 34 37 40 41 42 43 43 44 43 43 42 43 46 50 53 56 58 60 62 64 66 69 71 72 73 74 74 74 74 72 70
Wind_Direction
281 281 280 279 278 277 277 276 276 275 275 275 274 274 274 273 272 272 272 272 272 272 272 272 272 271 270 269 268 268 267 267 267 267 267 267 266 266 265 265 265 264 264 263 263 262 262 262 261 261 260 259 258 257 256 255 255 255 255 255 255 255 255 255 255 254 253 252 251 249 248 247 247 247 248 250 251 251 250 250 250 250 250 251 252 254
282 281 281 280 279 279 278 277 276 275 274 274 273 273 272 272 271 271 270 270 270 270 270 270 270 270 270 270 269 268 267 266 266 265 265 265 265 265 265 264 264 264 264 263 263 262 262 261 261 260 259 258 256 255 255 254 254 254 254 254 255 255 255 255 254 254 253 252 251 249 248 247 246 246 247 248 249 250 250 249 249 249 250 250 251 252
282 282 281 280 280 279 279 278 277 276 275 274 274 273 272 271 271 270 269 269 268 268 268 268 268 268 268 268 268 268 267 266 265 264 263 263 263 263 263 263 263 263 262 262 262 262 261 260 260 259 257 256 255 254 253 253 253 253 254 254 254 255 254 254 254 253 252 251 250 249 248 247 246 246 246 247 248 249 249 249 249 248 249 249 250 251
281 281 280 280 279 279 278 278 277 277 276 275 274 274 273 272 271 270 269 268 268 267 266 266 266 266 266 266 266 266 266 265 264 263 262 262 261 261 261 261 261 261 261 261 261 260 260 259 259 258 256 255 254 253 252 252 252 252 253 253 254 254 254 253 253 252 251 250 249 249 248 247 246 245 245 246 247 248 248 248 248 247 247 247 248 249
280 280 279 279 278 278 277 277 276 276 275 275 274 274 273 272 272 271 270 269 268 267 266 265 265 264 264 264 264 264 264 264 263 263 262 261 260 260 259 259 259 259 259 259 259 259 259 258 257 257 255 254 253 252 251 251 251 252 252 253 253 253 253 253 252 251 250 249 249 248 247 246 245 244 244 245 245 246 247 247 246 246 245 244 245 247
280 279 279 278 277 277 276 276 275 275 274 274 273 273 273 272 272 271 270 269 268 267 267 266 265 264 263 263 262 262 262 261 261 261 261 260 259 259 258 258 257 257 257 258 258 258 258 257 257 256 255 254 253 252 251 251 251 251 251 252 252 252 252 252 251 250 249 248 247 247 246 245 244 243 242 243 244 245 245 245 245 245 244 243 243 245
280 279 278 278 277 276 276 275 274 274 273 273 272 272 271 271 271 270 270 269 268 268 267 266 265 264 263 263 262 261 260 260 260 259 259 259 258 258 257 256 256 256 255 256 256 256 256 256 255 255 254 253 252 252 251 251 250 250 251 251 251 251 251 250 250 249 248 247 246 245 244 243 242 242 241 242 242 243 244 244 244 244 245 245 245 246
280 279 279 278 277 276 276 275 274 274 273 272 272 271 270 270 269 269 269 268 268 267 267 266 265 265 264 263 262 261 260 259 259 258 258 257 256 256 255 255 255 254 254 254 254 254 254 254 254 254 253 253 252 251 251 250 250 250 250 250 249 249 249 249 249 248 247 246 245 244 243 242 241 240 240 240 241 242 243 243 243 243 245 246 247 248
281 280 280 279 278 277 276 275 275 274 273 273 272 271 270 269 269 268 268 267 267 267 266 266 265 264 264 263 262 261 261 260 259 258 257 256 255 254 253 253 253 253 253 252 252 252 252 252 252 252 252 251 251 250 250 249 249 249 248 248 248 248 248 248 247 247 246 246 245 244 243 242 240 239 238 237 238 239 241 241 241 241 242 245 247 249
283 282 282 281 280 279 278 277 276 275 274 273 273 272 271 270 269 268 267 267 266 266 265 265 265 264 263 263 262 262 261 260 259 258 257 256 255 254 253 251 251 251 251 251 251 250 250 250 250 250 250 250 249 249 249 248 248 247 247 247 247 246 246 246 246 246 245 245 244 243 242 241 240 239 237 236 237 238 239 238 238 238 240 243 246 248
285 284 283 283 282 281 280 279 278 277 277 276 274 273 272 272 270 269 268 267 266 265 265 264 264 264 263 262 262 261 261 260 259 258 257 256 255 254 253 251 250 248 248 248 249 249 249 248 248 248 248 248 248 247 247 247 246 246 246 245 245 245 245 244 244 244 244 244 243 243 242 241 240 238 237 236 236 237 238 237 237 238 240 242 245 247
286 285 285 284 283 282 282 281 280 279 278 278 277 276 275 274 273 271 270 268 267 266 265 264 263 263 263 262 262 261 260 260 259 258 257 256 256 255 253 252 250 248 246 246 246 246 247 247 247 247 246 246 246 246 245 245 245 244 244 244 244 243 243 243 243 243 242 242 242 242 241 241 240 239 238 238 238 238 239 239 239 239 240 242 245 246
287 287 286 285 285 284 283 282 281 280 279 279 278 277 276 275 274 273 272 271 269 268 266 265 263 263 262 262 261 261 260 260 259 258 257 257 256 255 254 252 251 249 246 244 243 244 244 245 245 245 245 245 244 244 244 243 243 243 242 242 242 242 241 241 241 241 241 241 241 241 241 240 240 239 239 239 239 239 239 240 240 241 241 242 244 245
289 288 288 287 286 285 284 284 283 282 281 280 278 277 276 275 274 274 273 272 270 269 268 267 265 264 262 262 261 260 260 259 259 258 257 256 256 255 254 253 251 250 247 245 243 242 242 242 243 243 243 243 243 242 242 242 241 241 241 240 240 240 240 240 240 239 239 239 239 240 240 240 239 239 239 239 239 239 240 240 241 241 242 242 243 243
290 290 289 288 287 286 286 285 284 283 282 280 279 278 277 276 275 274 273 272 271 270 269 268 267 265 264 263 262 261 260 259 259 258 257 256 255 255 254 253 252 250 249 246 244 242 240 240 241 242 242 242 242 241 241 240 240 239 239 239 239 238 238 238 238 238 238 238 238 238 238 239 239 239 239 239 239 239 239 240 240 241 241 241 241 241
292 291 290 289 288 287 286 286 285 284 282 281 280 279 278 277 276 275 274 273 271 270 270 269 267 266 265 264 263 262 261 260 259 258 257 256 255 254 254 253 252 251 249 248 245 243 240 238 238 240 241 241 241 240 240 239 238 238 237 237 237 237 237 237 237 237 237 237 237 237 237 237 238 238 238 238 238 238 239 239 239 239 240 240 240 240
293 292 291 290 289 288 287 286 285 284 283 282 281 280 279 278 276 275 274 273 272 271 270 269 268 266 265 264 263 262 261 260 259 258 257 255 254 254 253 253 252 251 250 248 246 244 241 238 237 237 238 239 239 239 239 238 237 237 236 236 236 235 235 235 236 236 236 236 236 236 236 236 236 237 237 237 237 238 238 238 238 238 238 239 239 239
294 293 292 291 290 289 288 287 286 285 283 282 281 280 279 278 277 276 274 273 272 271 270 269 268 266 265 264 263 262 261 260 259 259 257 256 254 253 253 252 251 251 250 248 247 245 243 240 237 235 236 237 238 238 237 237 236 236 235 235 234 234 234 234 234 235 235 235 235 235 235 235 235 236 236 236 237 237 237 237 237 237 238 238 238 238
295 294 293 292 291 290 289 288 286 285 284 283 281 280 279 278 276 275 274 273 272 271 270 269 267 266 265 264 262 261 261 260 259 258 257 256 254 253 252 252 251 250 249 248 247 246 244 241 238 235 234 235 236 236 236 236 235 234 234 233 233 233 233 233 233 233 233 234 234 234 234 234 234 234 235 235 235 236 236 236 236 237 237 237 237 237
296 295 294 293 292 290 289 288 287 285 284 283 282 280 279 278 277 275 274 273 272 271 269 268 267 266 265 263 262 261 260 259 258 257 256 255 254 253 252 251 250 250 249 248 247 246 245 243 240 237 234 233 234 235 235 235 234 233 233 232 232 232 232 232 232 232 232 233 233 233 233 233 233 233 234 234 234 235 235 235 236 236 236 236 236 236
298 297 295 294 293 291 290 289 287 286 285 284 283 282 280 279 278 276 275 274 272 271 270 269 267 266 265 263 262 260 259 258 257 256 255 254 253 252 251 250 250 249 248 247 246 246 245 243 241 238 235 232 232 233 234 234 233 232 232 231 231 230 230 231 231 231 231 232 232 232 232 232 232 232 233 233 233 234 234 234 235 235 235 235 235 235
299 298 296 295 294 293 291 290 289 288 286 285 285 283 282 281 280 278 277 275 274 272 271 269 268 266 265 264 262 261 259 258 257 256 255 254 253 251 250 249 249 248 247 247 246 245 244 243 242 240 237 233 231 231 232 232 232 232 231 230 230 229 229 229 230 230 230 231 231 231 231 231 231 232 232 232 233 233 233 233 234 234 234 234 235 235
301 299 298 296 295 294 293 292 291 289 288 288 287 285 284 283 282 280 279 277 276 274 272 270 269 267 266 264 263 261 260 259 257 256 255 254 252 251 249 248 247 247 246 246 245 244 244 243 242 241 239 235 232 230 230 231 231 231 230 230 229 229 228 228 229 229 229 230 230 230 230 230 230 231 231 231 232 232 232 233 233 233 233 234 234 234
302 300 299 298 297 296 295 294 293 292 291 290 289 288 287 286 284 283 281 279 277 275 273 272 270 268 267 265 263 262 260 259 258 256 255 254 252 251 249 248 247 246 245 245 244 243 243 242 242 241 240 238 234 231 229 229 230 230 230 229 229 228 228 228 228 228 228 228 229 229 229 230 230 230 230 230 231 231 231 232 232 232 233 233 233 233
303 302 301 300 299 298 297 297 296 295 295 294 293 292 291 289 287 285 283 281 279 277 274 272 270 269 267 265 263 261 260 259 257 256 255 254 252 251 249 247 246 245 244 243 243 242 241 241 241 241 240 239 237 234 231 229 228 229 229 229 228 228 228 227 227 227 227 227 228 228 228 229 229 229 229 229 230 230 231 231 231 231 232 232 232 233
305 303 302 302 301 300 300 300 299 299 299 298 297 296 295 293 291 288 286 284 282 279 276 273 271 269 267 265 263 261 260 258 257 256 255 254 252 251 249 247 246 244 243 242 241 241 240 240 239 239 240 240 239 236 233 230 228 227 227 228 228 228 227 227 226 226 226 226 227 227 227 228 228 228 228 229 229 229 230 230 230 231 231 231 232 232
307 305 304 304 303 303 303 303 302 302 302 302 301 300 298 296 294 292 289 286 284 281 278 275 273 270 268 266 264 262 260 259 258 257 255 254 252 251 249 248 246 244 243 241 240 239 239 238 238 238 238 238 239 238 236 232 229 227 226 226 227 227 227 227 226 225 225 225 225 226 226 227 227 227 228 228 228 228 229 229 230 230 230 230 231 231
309 307 306 305 305 305 304 304 304 305 305 305 304 303 301 299 296 293 290 288 285 283 280 277 275 272 270 268 266 264 262 260 259 258 256 255 253 251 250 248 246 244 243 241 240 239 238 237 237 237 236 236 237 237 237 234 231 227 225 225 225 226 226 226 226 225 224 224 224 225 225 226 226 226 227 227 227 228 228 229 229 229 229 230 230 230
310 308 307 306 306 306 306 306 306 306 306 306 306 304 303 300 297 294 292 290 288 285 283 280 277 275 273 271 268 266 264 262 260 259 258 256 254 252 250 249 247 245 244 242 240 238 237 236 236 236 235 235 235 235 235 235 233 229 226 224 224 225 225 226 226 225 224 224 223 224 224 225 225 226 226 226 226 227 227 228 228 229 229 229 230 230
312 310 308 307 307 307 307 307 307 307 308 307 306 305 303 300 298 295 294 293 292 290 287 285 282 280 277 274 272 269 266 263 262 261 260 258 256 253 251 249 248 246 245 243 241 239 237 236 235 235 235 234 233 233 233 234 233 231 227 224 223 223 224 225 226 225 224 223 223 223 223 224 224 225 225 225 226 226 226 227 227 228 228 228 229 229
315 312 310 309 309 308 308 309 309 309 309 308 306 304 302 299 297 295 295 295 294 293 291 289 287 285 282 280 277 273 270 266 264 262 262 260 257 254 252 249 247 246 245 243 242 240 238 236 235 234 234 234 233 232 232 232 232 232 229 226 223 223 223 225 225 225 225 223 223 222 222 223 223 224 224 224 225 225 225 226 226 227 227 227 228 228
318 315 313 312 312 311 311 311 311 311 310 308 306 304 300 297 294 294 294 295 295 294 293 291 289 287 285 283 280 278 275 270 266 264 263 261 259 256 253 249 246 245 244 243 241 240 239 238 236 235 234 233 233 232 231 231 232 232 230 227 225 223 223 223 224 225 225 224 223 222 222 222 222 223 223 223 224 224 224 225 225 226 226 227 227 228
320 318 316 315 315 315 315 315 314 313 311 309 307 303 299 294 291 290 291 293 294 294 293 292 291 289 287 285 282 280 277 274 270 267 265 263 261 259 255 250 246 244 242 242 241 241 240 239 238 236 235 234 233 232 231 231 231 231 231 228 226 224 223 223 223 224 224 224 223 222 221 221 221 222 222 222 223 223 223 224 224 225 225 226 227 227
322 320 319 318 318 318 318 318 317 315 313 311 307 303 298 293 289 287 288 290 291 292 292 293 292 291 289 286 283 280 278 276 274 272 270 267 265 262 258 252 247 243 239 238 238 239 239 239 239 238 237 236 234 233 232 232 231 231 231 229 227 225 223 222 222 223 223 223 223 222 221 221 221 221 221 222 222 222 223 223 223 224 224 225 226 227
324 322 321 321 321 321 321 320 319 317 315 312 308 304 299 294 290 287 286 286 287 288 290 291 292 292 291 289 286 282 279 277 276 275 273 271 268 265 260 254 248 242 237 233 232 232 235 237 239 239 239 238 236 235 234 233 232 232 231 230 228 226 224 223 222 222 223 223 222 222 221 221 221 221 221 221 221 222 222 222 222 222 223 223 224 225
326 324 323 323 323 324 324 323 322 320 317 314 310 306 301 296 292 289 287 286 286 287 289 291 293 294 294 292 290 287 284 281 279 277 275 273 271 268 263 257 250 243 237 231 226 225 227 231 236 238 239 239 238 237 235 234 233 232 232 231 229 227 225 224 222 222 222 222 222 222 221 221 221 221 221 221 221 221 221 221 221 221 221 222 222 223
327 326 325 325 325 326 326 326 324 323 320 316 312 308 304 300 296 294 292 291 291 291 293 294 295 296 296 295 294 292 290 287 283 279 276 275 273 270 266 261 254 246 237 229 223 219 220 224 231 236 239 239 239 238 237 235 234 233 232 231 230 228 226 224 223 222 222 222 222 221 221 221 221 221 221 221 221 221 221 221 220 220 220 220 221 222
329 327 326 326 327 328 328 328 327 325 322 319 315 311 307 303 301 299 298 297 297 297 297 298 298 298 297 296 296 294 292 289 285 281 278 276 274 272 268 264 258 249 239 230 221 216 216 220 226 232 237 239 239 238 237 236 235 233 232 232 230 229 227 226 224 223 222 222 221 221 221 221 221 221 221 221 221 220 220 220 220 219 219 218 219 221
330 328 327 327 328 329 330 329 328 327 325 322 318 314 311 308 306 305 304 303 303 302 302 301 301 300 299 299 297 296 294 291 288 284 281 278 276 273 269 266 261 253 243 232 223 217 215 218 223 229 234 238 239 239 238 236 235 233 232 231 230 229 228 226 225 223 222 222 221 221 221 220 220 220 221 221 220 220 220 220 219 219 219 218 219 219
332 329 328 328 328 329 330 330 329 328 326 323 320 317 314 312 311 310 310 309 308 307 306 305 304 303 302 301 301 299 297 295 292 289 285 281 278 274 270 266 261 256 247 236 226 220 217 217 220 224 229 233 236 238 237 236 235 233 232 231 229 228 227 226 225 224 223 222 221 221 220 220 220 220 220 220 220 220 220 220 219 219 219 219 219 219
333 331 329 328 328 329 330 331 330 328 326 323 320 317 315 314 314 314 314 313 312 310 309 308 307 306 305 304 303 302 300 298 295 292 289 285 282 277 272 266 261 256 250 242 232 224 219 217 217 220 223 227 231 234 235 235 234 233 232 230 229 228 226 225 224 223 223 222 221 221 220 220 219 220 220 220 220 220 220 220 219 219 219 219 219 219
335 332 330 328 328 329 330 330 330 328 326 323 320 317 315 315 315 316 316 315 313 311 310 310 309 309 308 307 305 303 301 299 297 295 292 289 286 282 277 271 264 258 252 246 239 230 224 219 216 216 218 222 226 229 232 234 234 233 231 230 228 227 226 225 224 223 223 222 221 221 220 220 219 219 220 220 220 220 220 219 219 219 219 219 218 218
336 333 331 328 327 328 328 329 329 328 326 323 320 318 315 315 315 316 316 315 313 311 310 310 310 310 310 310 308 305 303 301 299 296 294 292 289 286 282 277 271 264 258 251 245 237 229 222 217 215 216 218 222 225 229 231 232 232 231 230 228 227 225 225 224 223 223 222 221 221 220 220 219 219 219 219 219 219 219 219 219 219 219 219 218 218
338 335 332 329 327 326 327 327 327 326 326 324 321 318 317 315 315 315 315 314 313 312 311 311 311 311 311 310 308 306 304 302 300 298 296 294 292 289 286 283 278 272 265 259 252 244 236 227 220 217 216 217 220 222 226 228 230 231 230 229 227 226 225 225 224 223 223 222 221 221 220 220 219 219 219 219 219 219 219 219 219 219 219 219 218 218
339 337 334 331 328 326 325 325 325 324 323 322 320 318 317 316 315 315 315 315 314 313 312 312 311 311 310 308 306 304 303 301 300 298 297 295 294 292 289 286 283 279 273 267 260 252 244 234 227 221 219 218 219 221 222 224 227 229 229 228 227 225 224 224 225 224 223 222 221 220 220 220 220 219 219 219 219 219 219 219 219 219 219 219 219 218
340 338 336 332 329 326 324 323 323 322 321 320 318 317 316 316 316 316 316 316 315 315 313 312 311 310 309 307 305 304 302 301 299 297 296 295 294 292 290 288 286 283 279 274 268 260 252 243 235 229 224 222 221 222 222 223 225 227 229 229 227 225 223 223 224 224 223 222 221 220 220 220 220 219 219 219 219 219 219 219 218 218 219 219 219 218
341 339 337 334 330 327 324 323 322 321 320 318 317 316 316 316 316 317 317 317 316 315 314 313 312 312 311 311 310 309 307 305 302 299 296 294 293 291 290 288 286 284 282 279 274 268 260 251 244 237 231 228 226 225 225 226 227 228 229 230 228 225 221 221 222 224 223 222 220 220 220 220 219 219 219 219 219 219 218 218 218 218 218 218 218 218
341 340 339 336 332 328 325 323 322 321 320 319 318 317 317 317 318 318 319 318 318 317 316 316 316 317 318 318 318 317 315 312 308 304 299 296 293 291 290 288 286 284 283 280 277 273 266 258 250 243 238 233 230 229 228 228 228 229 230 229 228 224 219 217 219 222 223 221 220 219 219 219 219 219 219 219 219 219 219 218 218 218 218 218 218 218
342 341 340 338 334 330 326 323 321 321 320 320 319 319 319 319 319 320 320 320 320 320 320 321 322 324 325 325 324 323 321 318 314 310 305 301 298 295 292 289 287 285 283 280 278 275 270 264 256 248 241 237 233 231 229 228 228 228 228 227 225 221 215 211 212 217 221 220 219 218 218 218 218 218 218 218 218 218 218 218 218 218 218 217 217 217
342 341 341 340 337 333 328 324 322 320 320 319 319 319 319 319 320 320 320 320 321 321 322 324 325 326 326 326 326 324 323 320 317 313 309 306 302 299 295 291 288 285 283 280 278 275 272 267 260 252 245 239 235 232 229 228 227 226 225 223 221 216 209 204 204 211 217 219 218 217 217 217 217 217 217 217 218 218 218 218 218 218 218 217 217 217
342 342 341 341 339 336 331 326 323 320 319 318 318 318 317 317 318 318 318 318 319 319 321 321 322 323 323 323 323 321 320 317 315 312 310 307 305 301 298 293 289 286 282 280 277 274 271 267 262 256 249 243 237 232 229 227 225 224 222 220 217 212 204 198 199 205 212 216 217 216 216 216 216 216 216 216 217 217 217 217 218 218 218 217 217 217
Height
5621 5620 5619 5618 5617 5616 5615 5614 5613 5612 5611 5610 5610 5609 5608 5607 5606 5606 5605 5604 5603 5602 5601 5601 5601 5602 5603 5604 5605 5606 5606 5606 5606 5606 5606 5606 5607 5608 5609 5609 5610 5611 5612 5613 5614 5616 5617 5618 5619 5620 5621 5622 5623 5624 5625 5626 5627 5629 5630 5631 5632 5633 5634 5634 5635 5636 5638 5639 5640 5640 5641 5642 5644 5646 5647 5647 5646 5645 5646 5647 5648 5649 5649 5650 5651 5652
5613 5611 5610 5609 5608 5607 5606 5605 5605 5604 5602 5601 5601 5601 5600 5599 5598 5598 5598 5597 5596 5595 5594 5594 5594 5594 5595 5595 5596 5597 5598 5598 5599 5599 5599 5600 5600 5601 5601 5602 5603 5604 5605 5606 5607 5608 5610 5611 5612 5614 5615 5616 5617 5618 5619 5620 5621 5622 5624 5625 5626 5627 5628 5629 5630 5631 5633 5634 5636 5637 5636 5637 5639 5640 5642 5642 5641 5641 5642 5643 5644 5645 5646 5646 5647 5648
5605 5602 5601 5599 5599 5598 5596 5595 5595 5594 5593 5591 5591 5591 5591 5591 5590 5590 5589 5589 5589 5588 5587 5587 5587 5587 5587 5587 5588 5589 5589 5590 5591 5591 5592 5592 5593 5594 5594 5595 5596 5596 5597 5599 5600 5601 5603 5604 5606 5607 5609 5610 5611 5612 5613 5614 5616 5616 5618 5619 5620 5621 5622 5623 5624 5625 5627 5629 5631 5632 5632 5633 5634 5636 5637 5637 5637 5637 5638 5639 5640 5641 5642 5644 5644 5644
5596 5594 5592 5590 5590 5589 5587 5585 5585 5584 5582 5581 5581 5581 5580 5580 5580 5580 5580 5580 5580 5579 5579 5579 5579 5579 5579 5580 5580 5581 5581 5581 5582 5583 5584 5585 5586 5586 5587 5588 5589 5589 5590 5591 5592 5594 5596 5597 5599 5600 5602 5603 5605 5606 5607 5608 5609 5611 5611 5613 5614 5615 5616 5617 5618 5620 5621 5623 5625 5626 5626 5629 5631 5632 5633 5633 5633 5633 5634 5636 5636 5637 5639 5641 5642 5642
5587 5585 5582 5581 5581 5580 5578 5576 5575 5574 5572 5571 5571 5570 5570 5569 5569 5569 5570 5570 5570 5569 5569 5570 5570 5570 5570 5571 5572 5573 5573 5573 5573 5574 5575 5576 5577 5579 5580 5581 5581 5582 5583 5584 5585 5586 5588 5590 5591 5593 5595 5596 5598 5599 5601 5602 5603 5604 5605 5606 5608 5609 5610 5611 5613 5614 5616 5617 5618 5620 5621 5624 5626 5628 5629 5628 5628 5629 5630 5633 5634 5635 5635 5637 5639 5639
5576 5575 5572 5571 5570 5569 5567 5566 5565 5563 5562 5561 5561 5560 5559 5559 5558 5558 5558 5558 5558 5558 5559 5559 5560 5560 5561 5561 5562 5563 5564 5564 5565 5566 5567 5568 5569 5570 5572 5573 5574 5575 5576 5577 5578 5579 5581 5582 5584 5586 5587 5589 5591 5592 5594 5595 5597 5598 5599 5600 5601 5603 5604 5605 5607 5608 5610 5611 5613 5614 5615 5617 5619 5621 5623 5623 5624 5625 5626 5628 5630 5631 5630 5631 5634 5635
5566 5564 5562 5561 5559 5558 5556 5556 5555 5552 5551 5551 5550 5549 5549 5548 5548 5547 5547 5547 5547 5547 5547 5548 5548 5549 5550 5551 5552 5553 5554 5555 5556 5557 5558 5559 5561 5562 5563 5565 5566 5567 5568 5569 5570 5571 5573 5575 5576 5578 5580 5582 5584 5586 5587 5589 5590 5591 5593 5594 5595 5596 5598 5599 5601 5602 5604 5606 5607 5608 5610 5612 5613 5614 5615 5617 5619 5620 5622 5624 5625 5626 5625 5626 5628 5629
5555 5553 5551 5550 5549 5547 5546 5544 5543 5541 5540 5539 5538 5538 5538 5538 5537 5536 5536 5536 5536 5536 5536 5536 5537 5538 5539 5540 5541 5541 5543 5544 5546 5547 5549 5550 5552 5553 5555 5556 5557 5558 5560 5561 5562 5564 5565 5567 5569 5571 5573 5575 5577 5578 5580 5582 5583 5585 5586 5588 5589 5590 5592 5593 5594 5596 5597 5599 5601 5603 5605 5606 5607 5609 5611 5612 5614 5615 5616 5618 5620 5621 5620 5621 5622 5623
5543 5542 5540 5539 5537 5536 5536 5534 5531 5530 5529 5528 5527 5525 5525 5526 5526 5525 5524 5525 5525 5524 5524 5524 5526 5526 5527 5528 5529 5530 5531 5532 5534 5536 5538 5540 5542 5544 5546 5547 5548 5550 5551 5553 5554 5556 5557 5559 5561 5563 5565 5567 5569 5571 5573 5575 5576 5578 5580 5581 5582 5584 5586 5587 5588 5590 5591 5593 5595 5596 5599 5601 5603 5604 5606 5608 5609 5611 5611 5613 5615 5616 5616 5616 5617 5618
5532 5531 5530 5528 5526 5524 5524 5523 5521 5518 5517 5517 5516 5513 5511 5512 5513 5513 5512 5514 5514 5513 5512 5513 5514 5514 5515 5516 5517 5518 5519 5520 5522 5524 5526 5529 5531 5533 5536 5538 5540 5541 5543 5544 5546 5547 5549 5551 5553 5555 5557 5559 5561 5564 5566 5567 5569 5571 5573 5574 5576 5578 5579 5581 5582 5584 5585 5587 5588 5590 5592 5595 5597 5599 5601 5602 5604 5606 5607 5608 5610 5611 5611 5611 5612 5614
5523 5521 5520 5519 5516 5514 5513 5512 5510 5507 5506 5506 5505 5503 5500 5499 5499 5500 5500 5501 5502 5501 5502 5502 5502 5501 5502 5504 5506 5506 5507 5508 5510 5511 5514 5516 5519 5522 5525 5528 5531 5533 5534 5536 5536 5538 5540 5541 5544 5546 5548 5551 5553 5556 5558 5560 5562 5564 5566 5567 5569 5571 5573 5574 5576 5577 5579 5581 5582 5584 5586 5589 5591 5593 5595 5598 5600 5601 5602 5603 5604 5605 5606 5607 5608 5609
5514 5512 5511 5510 5507 5505 5503 5502 5500 5498 5496 5495 5494 5493 5490 5487 5486 5487 5488 5488 5487 5488 5490 5491 5491 5490 5491 5493 5494 5494 5495 5496 5497 5498 5501 5504 5507 5510 5513 5516 5519 5522 5525 5526 5527 5529 5530 5532 5535 5537 5539 5542 5545 5547 5550 5552 5554 5556 5558 5560 5562 5564 5566 5568 5570 5571 5573 5575 5576 5578 5580 5582 5584 5586 5589 5591 5593 5595 5597 5598 5599 5600 5601 5602 5603 5605
5505 5503 5501 5500 5498 5495 5493 5492 5491 5489 5486 5485 5484 5482 5480 5477 5475 5476 5477 5476 5474 5474 5476 5478 5479 5480 5480 5481 5482 5482 5482 5483 5484 5486 5488 5492 5495 5498 5500 5503 5507 5510 5513 5516 5518 5520 5521 5523 5525 5527 5530 5532 5535 5538 5541 5544 5546 5549 5551 5553 5555 5557 5559 5561 5563 5565 5566 5568 5570 5572 5574 5576 5578 5580 5582 5584 5586 5588 5591 5592 5594 5595 5596 5597 5599 5600
5495 5493 5491 5490 5487 5484 5482 5481 5480 5478 5475 5473 5471 5471 5469 5467 5465 5464 5465 5465 5463 5461 5461 5464 5467 5468 5468 5469 5471 5471 5470 5470 5471 5474 5477 5480 5483 5485 5487 5491 5494 5497 5501 5505 5508 5511 5513 5514 5515 5517 5519 5522 5526 5529 5532 5535 5538 5541 5543 5545 5547 5549 5552 5554 5556 5558 5560 5562 5564 5566 5568 5570 5572 5574 5576 5578 5580 5581 5584 5586 5588 5590 5591 5592 5594 5596
5485 5483 5482 5479 5476 5473 5471 5469 5468 5466 5464 5461 5459 5458 5457 5456 5453 5452 5452 5452 5451 5450 5449 5452 5454 5455 5455 5457 5459 5460 5459 5458 5459 5461 5465 5468 5471 5473 5475 5478 5481 5484 5487 5492 5497 5501 5504 5506 5507 5508 5509 5512 5516 5519 5523 5526 5529 5532 5534 5537 5539 5541 5544 5546 5549 5551 5553 5556 5558 5560 5562 5564 5566 5568 5570 5572 5574 5576 5577 5580 5583 5585 5586 5587 5589 5591
5475 5473 5471 5469 5465 5462 5459 5457 5456 5455 5451 5448 5446 5445 5445 5444 5441 5439 5438 5439 5439 5438 5437 5439 5441 5442 5443 5444 5446 5447 5448 5447 5447 5449 5452 5456 5459 5461 5463 5465 5468 5471 5474 5479 5483 5488 5492 5496 5499 5500 5501 5503 5506 5509 5513 5516 5520 5523 5526 5528 5531 5533 5536 5538 5541 5544 5546 5549 5551 5553 5556 5558 5560 5562 5564 5566 5568 5570 5572 5574 5577 5579 5580 5582 5584 5586
5464 5462 5460 5457 5454 5450 5447 5445 5443 5442 5439 5436 5433 5431 5431 5430 5428 5426 5425 5426 5426 5425 5425 5425 5427 5429 5430 5431 5433 5435 5436 5436 5436 5436 5439 5443 5447 5449 5450 5452 5455 5458 5461 5465 5470 5475 5480 5484 5488 5491 5493 5494 5496 5499 5503 5506 5510 5513 5516 5519 5522 5525 5527 5530 5533 5536 5539 5541 5544 5546 5549 5551 5553 5556 5558 5560 5562 5564 5567 5569 5571 5573 5575 5576 5579 5581
5454 5450 5448 5445 5442 5438 5434 5432 5431 5428 5425 5422 5420 5418 5416 5416 5414 5413 5412 5411 5411 5411 5411 5411 5412 5414 5416 5419 5421 5422 5422 5423 5424 5424 5425 5429 5434 5437 5438 5441 5443 5446 5448 5452 5457 5463 5467 5472 5477 5481 5483 5485 5487 5490 5492 5496 5500 5504 5507 5510 5513 5516 5519 5522 5525 5528 5531 5534 5536 5539 5542 5544 5547 5549 5552 5554 5556 5559 5561 5563 5566 5567 5569 5571 5573 5575
5444 5440 5436 5433 5429 5426 5422 5420 5417 5414 5411 5408 5405 5403 5402 5401 5400 5399 5398 5398 5397 5396 5396 5396 5397 5399 5401 5404 5407 5407 5407 5410 5412 5412 5411 5414 5420 5425 5427 5429 5431 5433 5436 5440 5445 5450 5455 5460 5465 5469 5473 5476 5478 5481 5483 5486 5489 5493 5497 5501 5504 5507 5510 5513 5516 5520 5523 5526 5529 5532 5535 5537 5540 5543 5545 5548 5550 5553 5555 5557 5560 5562 5564 5566 5568 5570
5433 5429 5425 5420 5416 5413 5410 5406 5403 5400 5398 5394 5391 5388 5388 5387 5385 5384 5384 5384 5382 5381 5381 5382 5383 5384 5386 5388 5391 5393 5394 5395 5397 5399 5399 5401 5405 5411 5416 5418 5419 5421 5423 5428 5433 5438 5442 5447 5452 5457 5462 5465 5467 5470 5474 5477 5480 5482 5486 5491 5494 5498 5501 5505 5508 5511 5514 5517 5521 5524 5527 5530 5533 5536 5539 5541 5544 5547 5549 5551 5554 5556 5558 5561 5563 5565
5421 5417 5412 5407 5404 5401 5398 5393 5390 5387 5385 5381 5378 5376 5374 5372 5371 5371 5371 5369 5368 5368 5368 5368 5369 5370 5370 5372 5376 5379 5380 5380 5382 5385 5386 5386 5391 5398 5404 5406 5407 5409 5412 5416 5421 5426 5430 5435 5440 5445 5450 5454 5456 5458 5461 5466 5471 5474 5476 5480 5484 5488 5492 5496 5499 5502 5506 5509 5513 5516 5520 5523 5526 5529 5532 5535 5537 5540 5543 5546 5548 5551 5553 5556 5558 5560
5410 5406 5401 5396 5392 5390 5386 5382 5379 5376 5373 5370 5367 5364 5361 5359 5358 5358 5357 5356 5356 5355 5355 5355 5355 5356 5356 5359 5362 5365 5366 5367 5370 5371 5371 5372 5379 5387 5392 5394 5395 5397 5401 5406 5411 5415 5419 5423 5427 5432 5437 5442 5446 5449 5451 5453 5458 5463 5468 5471 5475 5479 5483 5486 5490 5493 5497 5501 5505 5508 5512 5515 5518 5521 5525 5528 5531 5534 5536 5539 5542 5545 5547 5550 5552 5555
5399 5396 5391 5386 5382 5379 5375 5372 5369 5366 5363 5360 5358 5355 5351 5349 5348 5347 5345 5344 5344 5343 5343 5342 5342 5343 5344 5346 5349 5351 5354 5356 5357 5357 5357 5361 5367 5374 5378 5381 5384 5387 5391 5395 5400 5404 5409 5412 5416 5420 5425 5430 5435 5439 5442 5444 5447 5451 5457 5462 5466 5470 5473 5477 5481 5485 5488 5492 5496 5500 5504 5507 5511 5515 5518 5521 5524 5527 5530 5533 5536 5539 5541 5544 5547 5549
5391 5386 5382 5378 5374 5370 5366 5363 5360 5357 5354 5351 5349 5346 5343 5341 5339 5337 5335 5334 5333 5332 5331 5331 5331 5332 5334 5336 5338 5340 5343 5344 5344 5344 5346 5349 5353 5359 5365 5370 5374 5377 5380 5384 5388 5394 5399 5402 5405 5409 5413 5418 5423 5428 5431 5434 5437 5441 5447 5452 5456 5461 5464 5468 5472 5476 5480 5484 5488 5491 5496 5499 5503 5507 5511 5514 5517 5521 5524 5527 5530 5533 5535 5538 5541 5544
5383 5379 5374 5370 5366 5363 5359 5355 5352 5349 5346 5344 5341 5338 5335 5332 5330 5328 5326 5325 5324 5323 5322 5321 5322 5322 5323 5324 5327 5330 5331 5333 5333 5334 5336 5338 5341 5346 5353 5359 5363 5366 5369 5373 5378 5383 5388 5392 5395 5398 5402 5407 5411 5416 5420 5423 5427 5432 5437 5442 5446 5451 5455 5459 5463 5467 5471 5475 5479 5483 5487 5491 5495 5499 5503 5507 5511 5514 5517 5521 5523 5526 5529 5532 5535 5538
5376 5372 5368 5364 5360 5356 5352 5349 5345 5342 5339 5336 5333 5330 5327 5324 5322 5320 5319 5317 5316 5315 5314 5313 5313 5313 5314 5315 5317 5320 5322 5324 5325 5326 5326 5327 5330 5334 5342 5347 5352 5355 5358 5363 5368 5373 5377 5381 5385 5388 5393 5397 5401 5404 5408 5412 5417 5422 5427 5431 5436 5440 5445 5449 5453 5457 5462 5466 5471 5475 5479 5483 5487 5491 5496 5499 5503 5507 5511 5514 5517 5520 5523 5526 5529 5532
5370 5366 5362 5358 5354 5350 5346 5343 5339 5336 5333 5330 5326 5323 5321 5318 5316 5314 5312 5311 5309 5308 5307 5306 5306 5306 5307 5308 5310 5312 5314 5316 5318 5318 5317 5318 5321 5325 5331 5336 5341 5344 5348 5352 5357 5362 5366 5370 5375 5380 5384 5388 5391 5393 5396 5401 5407 5412 5417 5421 5425 5430 5435 5440 5444 5448 5452 5457 5462 5466 5471 5475 5479 5483 5488 5492 5496 5500 5503 5507 5511 5514 5517 5521 5523 5526
5366 5361 5357 5353 5349 5345 5341 5338 5335 5331 5327 5324 5321 5317 5315 5312 5310 5308 5306 5305 5304 5303 5302 5301 5301 5300 5301 5302 5303 5305 5307 5310 5311 5311 5310 5311 5314 5317 5321 5326 5330 5334 5337 5341 5346 5351 5356 5361 5366 5371 5375 5379 5382 5384 5387 5391 5396 5401 5406 5411 5416 5420 5425 5430 5434 5439 5443 5449 5454 5458 5463 5467 5471 5476 5480 5484 5488 5492 5496 5500 5504 5507 5511 5514 5517 5520
5361 5357 5353 5349 5345 5341 5337 5334 5330 5326 5323 5319 5316 5312 5309 5307 5306 5303 5301 5300 5300 5299 5298 5297 5297 5296 5296 5297 5298 5300 5302 5305 5306 5305 5304 5305 5308 5311 5313 5318 5322 5325 5328 5331 5336 5341 5346 5351 5355 5360 5365 5369 5372 5375 5378 5381 5385 5390 5396 5401 5407 5412 5416 5420 5425 5429 5434 5440 5445 5450 5455 5459 5464 5468 5472 5477 5481 5486 5490 5493 5497 5501 5505 5508 5511 5514
5358 5354 5349 5346 5341 5338 5334 5330 5326 5322 5319 5315 5312 5308 5305 5303 5301 5300 5298 5297 5296 5296 5294 5294 5293 5293 5293 5293 5294 5295 5297 5300 5301 5301 5300 5301 5301 5304 5307 5311 5315 5318 5321 5324 5327 5331 5336 5340 5344 5348 5353 5357 5361 5364 5368 5371 5374 5379 5385 5392 5399 5404 5409 5412 5416 5421 5426 5431 5436 5442 5446 5451 5456 5461 5465 5469 5474 5478 5483 5487 5491 5495 5498 5501 5504 5507
5354 5350 5346 5342 5338 5334 5330 5326 5322 5319 5315 5311 5308 5305 5302 5300 5298 5296 5295 5295 5294 5293 5292 5291 5291 5291 5291 5291 5291 5292 5293 5296 5297 5297 5296 5296 5296 5297 5302 5306 5308 5310 5314 5318 5320 5321 5324 5328 5333 5338 5341 5345 5350 5354 5358 5361 5365 5370 5377 5384 5391 5397 5402 5405 5408 5412 5417 5422 5428 5433 5438 5443 5448 5453 5457 5462 5466 5471 5475 5480 5484 5488 5491 5495 5498 5501
5349 5345 5341 5337 5334 5330 5326 5322 5318 5315 5311 5308 5304 5301 5299 5297 5296 5294 5293 5292 5292 5291 5290 5289 5289 5289 5289 5289 5289 5289 5290 5292 5293 5293 5292 5292 5291 5293 5297 5300 5302 5304 5306 5309 5311 5313 5315 5319 5323 5328 5331 5335 5339 5343 5348 5352 5357 5362 5369 5376 5383 5389 5393 5396 5400 5404 5408 5414 5420 5425 5430 5435 5440 5445 5449 5454 5459 5463 5468 5472 5476 5481 5485 5488 5492 5496
5344 5340 5336 5333 5329 5326 5322 5318 5314 5311 5307 5304 5301 5299 5296 5295 5294 5292 5291 5291 5291 5290 5289 5288 5287 5287 5287 5287 5287 5287 5287 5288 5289 5289 5290 5290 5289 5290 5293 5296 5297 5299 5301 5303 5306 5308 5310 5313 5316 5319 5322 5326 5329 5333 5338 5343 5349 5354 5360 5367 5373 5379 5384 5388 5392 5396 5401 5406 5411 5417 5422 5427 5432 5437 5442 5446 5451 5456 5461 5465 5470 5474 5478 5483 5486 5490
5340 5336 5333 5329 5325 5321 5318 5314 5311 5307 5304 5301 5299 5296 5295 5293 5292 5291 5290 5289 5288 5288 5287 5287 5286 5285 5285 5285 5285 5285 5285 5286 5286 5286 5287 5288 5288 5288 5289 5291 5293 5295 5297 5300 5302 5304 5306 5308 5310 5312 5315 5318 5322 5327 5332 5337 5342 5347 5352 5358 5364 5370 5375 5380 5385 5389 5393 5398 5404 5410 5415 5420 5425 5430 5435 5439 5444 5449 5453 5458 5463 5467 5472 5477 5481 5486
5337 5333 5330 5326 5322 5319 5315 5311 5308 5305 5302 5299 5297 5295 5293 5292 5291 5290 5288 5287 5287 5286 5286 5285 5285 5284 5284 5283 5283 5283 5283 5284 5284 5284 5285 5286 5286 5286 5286 5288 5290 5292 5294 5296 5298 5300 5302 5303 5304 5306 5310 5313 5317 5323 5328 5332 5337 5341 5346 5351 5357 5362 5367 5372 5377 5382 5386 5391 5397 5403 5409 5413 5418 5423 5428 5432 5437 5442 5447 5451 5456 5461 5466 5471 5476 5481
5334 5331 5327 5323 5320 5316 5312 5309 5306 5303 5300 5298 5296 5294 5292 5291 5290 5288 5287 5286 5286 5285 5284 5283 5283 5282 5282 5282 5282 5281 5281 5281 5282 5282 5282 5282 5283 5284 5284 5285 5286 5288 5290 5292 5293 5295 5297 5299 5301 5303 5306 5309 5313 5318 5322 5326 5331 5336 5341 5346 5351 5356 5360 5365 5370 5375 5380 5385 5391 5397 5402 5407 5411 5416 5421 5426 5431 5435 5440 5445 5450 5455 5459 5464 5470 5476
5331 5328 5324 5321 5317 5314 5310 5307 5304 5301 5299 5296 5295 5293 5291 5290 5289 5288 5287 5286 5285 5284 5283 5283 5282 5281 5281 5280 5280 5280 5279 5279 5280 5280 5279 5279 5280 5281 5281 5282 5284 5286 5287 5288 5290 5292 5294 5296 5298 5301 5303 5306 5309 5312 5316 5320 5325 5331 5335 5339 5343 5348 5353 5358 5363 5368 5374 5379 5385 5390 5395 5400 5405 5410 5414 5419 5424 5429 5434 5438 5443 5448 5453 5457 5463 5469
5329 5326 5322 5319 5315 5312 5308 5306 5303 5300 5298 5296 5294 5292 5291 5290 5288 5287 5286 5285 5284 5284 5283 5282 5281 5281 5280 5279 5278 5278 5278 5277 5277 5277 5277 5277 5277 5278 5279 5280 5281 5283 5284 5286 5287 5290 5292 5294 5296 5298 5300 5302 5305 5308 5311 5315 5320 5324 5328 5332 5336 5342 5347 5352 5357 5362 5367 5372 5377 5383 5388 5393 5399 5403 5408 5413 5418 5422 5427 5432 5437 5442 5446 5451 5456 5461
5327 5324 5320 5317 5314 5311 5307 5304 5301 5299 5297 5295 5293 5292 5290 5289 5288 5287 5286 5285 5284 5283 5282 5281 5281 5280 5279 5278 5277 5277 5276 5276 5276 5276 5276 5276 5276 5276 5277 5278 5279 5281 5282 5283 5285 5287 5289 5291 5294 5296 5297 5299 5301 5304 5307 5311 5314 5318 5322 5326 5331 5337 5341 5346 5351 5356 5361 5366 5371 5376 5381 5387 5393 5397 5402 5407 5411 5416 5421 5426 5431 5435 5440 5445 5449 5453
5325 5322 5318 5316 5312 5309 5306 5303 5301 5298 5296 5294 5293 5291 5290 5289 5287 5286 5285 5284 5283 5282 5281 5280 5280 5279 5278 5277 5276 5276 5275 5275 5274 5274 5274 5274 5274 5274 5275 5276 5277 5278 5280 5281 5283 5285 5287 5289 5291 5293 5295 5297 5298 5300 5303 5306 5310 5313 5317 5322 5327 5331 5336 5340 5345 5351 5356 5360 5365 5370 5376 5381 5386 5392 5396 5401 5406 5411 5415 5420 5425 5429 5434 5438 5443 5447
5323 5320 5317 5314 5311 5308 5305 5302 5300 5298 5296 5294 5292 5291 5290 5288 5287 5286 5285 5284 5283 5281 5281 5280 5279 5278 5277 5276 5276 5275 5274 5273 5273 5272 5272 5272 5272 5272 5273 5273 5274 5276 5277 5279 5281 5282 5285 5286 5289 5291 5293 5294 5295 5297 5299 5302 5305 5308 5313 5317 5321 5325 5328 5334 5340 5345 5350 5354 5359 5364 5370 5375 5381 5386 5391 5395 5400 5405 5409 5414 5419 5424 5428 5432 5437 5441
5322 5318 5315 5312 5310 5306 5304 5301 5299 5297 5295 5293 5292 5291 5289 5288 5287 5286 5285 5283 5282 5281 5280 5279 5278 5277 5277 5276 5275 5274 5273 5272 5271 5271 5271 5271 5270 5270 5271 5271 5272 5273 5274 5275 5277 5279 5281 5284 5286 5288 5290 5291 5293 5294 5296 5298 5301 5305 5309 5312 5316 5319 5324 5330 5335 5339 5343 5348 5353 5359 5364 5370 5375 5380 5385 5389 5394 5399 5404 5409 5414 5419 5423 5427 5431 5436
5320 5317 5314 5311 5308 5306 5303 5301 5298 5296 5295 5293 5291 5290 5289 5288 5286 5285 5284 5283 5282 5281 5279 5278 5277 5277 5276 5275 5274 5273 5272 5271 5271 5270 5269 5269 5269 5269 5269 5269 5270 5270 5271 5272 5273 5275 5277 5280 5282 5285 5287 5288 5290 5291 5293 5295 5298 5301 5305 5308 5312 5316 5321 5326 5329 5333 5337 5342 5347 5353 5359 5364 5369 5374 5379 5384 5389 5394 5399 5404 5408 5413 5418 5422 5426 5431
5319 5316 5312 5309 5306 5304 5302 5300 5298 5296 5294 5292 5291 5290 5288 5287 5286 5284 5283 5282 5281 5280 5279 5278 5277 5276 5275 5274 5274 5273 5271 5271 5270 5269 5268 5268 5268 5268 5268 5268 5268 5268 5269 5270 5271 5272 5274 5276 5278 5280 5283 5285 5287 5288 5291 5293 5295 5298 5301 5305 5308 5312 5316 5319 5323 5327 5332 5338 5343 5349 5355 5360 5364 5369 5374 5379 5384 5390 5394 5399 5403 5407 5412 5417 5422 5426
5317 5313 5311 5308 5305 5303 5301 5299 5297 5295 5293 5292 5290 5289 5287 5286 5285 5283 5282 5281 5280 5279 5278 5277 5276 5275 5274 5273 5272 5272 5271 5270 5269 5268 5267 5267 5266 5266 5266 5266 5266 5266 5267 5267 5268 5269 5271 5272 5274 5276 5279 5281 5283 5285 5288 5290 5292 5295 5298 5301 5305 5308 5311 5315 5319 5324 5329 5334 5340 5345 5350 5355 5359 5364 5370 5375 5380 5385 5390 5394 5399 5403 5408 5412 5417 5421
5315 5312 5309 5306 5304 5301 5300 5298 5296 5294 5292 5291 5289 5287 5286 5285 5283 5282 5281 5280 5279 5278 5277 5276 5275 5274 5273 5272 5272 5271 5270 5269 5269 5268 5267 5266 5266 5265 5265 5265 5265 5265 5265 5266 5266 5267 5268 5269 5271 5273 5275 5277 5279 5281 5284 5287 5289 5292 5294 5297 5301 5305 5309 5313 5317 5320 5324 5329 5335 5340 5345 5349 5354 5360 5365 5370 5374 5379 5384 5389 5394 5398 5403 5407 5412 5417
5314 5311 5308 5305 5302 5300 5298 5296 5294 5293 5291 5289 5288 5286 5285 5283 5282 5281 5280 5279 5278 5277 5276 5275 5274 5273 5272 5272 5271 5270 5270 5269 5268 5267 5266 5266 5265 5264 5264 5264 5264 5263 5264 5264 5264 5265 5265 5266 5267 5269 5271 5273 5275 5277 5280 5283 5286 5288 5291 5294 5297 5301 5306 5310 5313 5315 5319 5324 5330 5335 5340 5344 5350 5355 5360 5364 5369 5374 5379 5384 5389 5394 5398 5403 5407 5412
5313 5310 5306 5304 5301 5299 5296 5295 5293 5291 5290 5288 5286 5285 5283 5282 5281 5280 5279 5278 5277 5276 5276 5275 5273 5273 5272 5271 5270 5270 5269 5268 5267 5266 5266 5265 5264 5263 5263 5262 5262 5262 5262 5262 5262 5263 5263 5264 5265 5266 5267 5269 5271 5273 5276 5279 5281 5284 5287 5290 5294 5298 5302 5306 5309 5311 5315 5319 5325 5330 5335 5340 5345 5350 5354 5359 5365 5370 5376 5381 5385 5390 5394 5399 5404 5408
5312 5309 5305 5302 5300 5297 5295 5293 5291 5290 5288 5286 5285 5284 5282 5281 5280 5279 5278 5277 5277 5276 5275 5274 5273 5272 5271 5271 5270 5269 5268 5267 5266 5266 5265 5264 5263 5263 5262 5261 5261 5261 5261 5261 5261 5261 5261 5261 5262 5263 5264 5266 5267 5269 5271 5274 5276 5279 5282 5286 5290 5294 5298 5303 5306 5309 5311 5315 5320 5325 5330 5334 5339 5344 5349 5355 5361 5366 5371 5376 5381 5386 5390 5395 5400 5405
5311 5307 5304 5301 5298 5296 5294 5292 5290 5288 5287 5285 5284 5282 5281 5280 5279 5278 5277 5277 5276 5275 5274 5273 5272 5271 5271 5270 5269 5268 5267 5266 5266 5265 5264 5263 5263 5262 5261 5261 5260 5260 5260 5259 5259 5260 5260 5260 5260 5261 5261 5262 5264 5265 5267 5269 5272 5275 5278 5281 5285 5290 5295 5299 5303 5306 5308 5311 5316 5321 5325 5330 5335 5340 5346 5351 5356 5361 5366 5371 5377 5382 5387 5392 5396 5401
5310 5306 5303 5300 5297 5295 5292 5290 5289 5287 5286 5284 5283 5281 5280 5279 5278 5277 5276 5276 5275 5274 5273 5272 5272 5271 5270 5269 5268 5267 5266 5266 5265 5264 5263 5262 5261 5261 5260 5260 5259 5259 5258 5258 5258 5258 5258 5258 5259 5259 5260 5260 5261 5262 5264 5266 5268 5271 5274 5278 5282 5286 5291 5296 5300 5303 5305 5308 5312 5316 5321 5326 5332 5337 5342 5347 5352 5356 5362 5367 5373 5379 5384 5388 5393 5398